| time (UTC) | temp F | wind direction | speed knots | gust knots | rain 1hr in | rain 24hr in | rain mn in | humidity % | barometer mb |
| 20260510094757 | 64 | 222 | 0.9 | 0.9 | 0.00 | 0.00 | 0.00 | 80 | 1013.1 |
| 20260510094252 | 65 | 199 | 0.0 | 0.0 | 0.00 | 0.00 | 0.00 | 79 | 1012.8 |
| 20260510093748 | 66 | 199 | 0.0 | 0.0 | 0.00 | 0.00 | 0.00 | 79 | 1012.5 |
| 20260510093245 | 66 | 236 | 0.0 | 0.0 | 0.00 | 0.00 | 0.00 | 78 | 1012.4 |
| 20260510092742 | 66 | 236 | 0.0 | 0.0 | 0.00 | 0.00 | 0.00 | 78 | 1012.3 |
| 20260510092237 | 66 | 325 | 0.0 | 0.0 | 0.00 | 0.00 | 0.00 | 77 | 1012.2 |
| 20260510091733 | 66 | 218 | 3.5 | 5.2 | 0.00 | 0.00 | 0.00 | 77 | 1012.2 |
| 20260510091230 | 66 | 245 | 6.1 | 7.8 | 0.00 | 0.00 | 0.00 | 76 | 1012.1 |
| 20260510090726 | 66 | 203 | 5.2 | 6.1 | 0.00 | 0.00 | 0.00 | 76 | 1012.0 |
| 20260510090224 | 66 | 205 | 2.6 | 2.6 | 0.00 | 0.00 | 0.00 | 75 | 1011.9 |
| 20260510085719 | 66 | 188 | 2.6 | 2.6 | 0.00 | 0.00 | 0.00 | 75 | 1012.2 |
| 20260510085214 | 66 | 213 | 4.3 | 6.1 | 0.00 | 0.00 | 0.00 | 75 | 1012.1 |
| 20260510084710 | 66 | 203 | 2.6 | 5.2 | 0.00 | 0.00 | 0.00 | 73 | 1012.1 |
| 20260510084207 | 66 | 190 | 3.5 | 4.3 | 0.00 | 0.00 | 0.00 | 73 | 1012.1 |
| 20260510083703 | 66 | 209 | 3.5 | 4.3 | 0.00 | 0.00 | 0.00 | 72 | 1012.1 |
| 20260510083201 | 66 | 208 | 3.5 | 4.3 | 0.00 | 0.00 | 0.00 | 72 | 1012.4 |
| 20260510082651 | 66 | 213 | 2.6 | 4.3 | 0.00 | 0.00 | 0.00 | 71 | 1012.2 |
| 20260510082147 | 66 | 247 | 4.3 | 6.1 | 0.00 | 0.00 | 0.00 | 70 | 1012.3 |
| 20260510081642 | 67 | 222 | 0.9 | 1.7 | 0.00 | 0.00 | 0.00 | 69 | 1012.3 |
| 20260510081137 | 67 | 214 | 7.8 | 9.6 | 0.00 | 0.00 | 0.00 | 68 | 1012.1 |
| 20260510080631 | 67 | 199 | 5.2 | 6.1 | 0.00 | 0.00 | 0.00 | 69 | 1011.8 |
| 20260510080128 | 67 | 200 | 2.6 | 4.3 | 0.00 | 0.00 | 0.00 | 69 | 1011.8 |
| 20260510075625 | 67 | 191 | 2.6 | 2.6 | 0.00 | 0.00 | 0.00 | 70 | 1012.0 |
| 20260510075122 | 67 | 212 | 3.5 | 4.3 | 0.00 | 0.00 | 0.00 | 69 | 1011.9 |
| 20260510074619 | 68 | 202 | 0.9 | 1.7 | 0.00 | 0.00 | 0.00 | 68 | 1011.9 |
| 20260510074115 | 68 | 197 | 2.6 | 2.6 | 0.00 | 0.00 | 0.00 | 67 | 1011.8 |
| 20260510073611 | 68 | 214 | 2.6 | 2.6 | 0.00 | 0.00 | 0.00 | 66 | 1012.0 |
| 20260510073108 | 68 | 212 | 2.6 | 4.3 | 0.00 | 0.00 | 0.00 | 67 | 1012.1 |
| 20260510072559 | 68 | 196 | 2.6 | 2.6 | 0.00 | 0.00 | 0.00 | 65 | 1012.0 |
| 20260510072055 | 68 | 209 | 1.7 | 1.7 | 0.00 | 0.00 | 0.00 | 64 | 1012.2 |
| 20260510071551 | 68 | 211 | 1.7 | 1.7 | 0.00 | 0.00 | 0.00 | 63 | 1012.2 |
| 20260510071049 | 67 | 214 | 1.7 | 1.7 | 0.00 | 0.00 | 0.00 | 62 | 1012.3 |
| 20260510070546 | 68 | 194 | 2.6 | 2.6 | 0.00 | 0.00 | 0.00 | 61 | 1012.3 |
| 20260510070043 | 68 | 206 | 3.5 | 4.3 | 0.00 | 0.00 | 0.00 | 60 | 1012.1 |
| 20260510065539 | 67 | 212 | 1.7 | 1.7 | 0.00 | 0.00 | 0.00 | 59 | 1012.1 |
| 20260510065035 | 67 | 242 | 1.7 | 1.7 | 0.00 | 0.00 | 0.00 | 58 | 1012.2 |
| 20260510064532 | 66 | 242 | 1.7 | 1.7 | 0.00 | 0.00 | 0.00 | 59 | 1012.3 |
| 20260510064029 | 66 | 242 | 1.7 | 1.7 | 0.00 | 0.00 | 0.00 | 58 | 1012.5 |
| 20260510063526 | 67 | 238 | 2.6 | 2.6 | 0.00 | 0.00 | 0.00 | 57 | 1012.4 |
| 20260510063023 | 67 | 212 | 0.9 | 0.9 | 0.00 | 0.00 | 0.00 | 56 | 1012.4 |
| 20260510062519 | 68 | 212 | 0.9 | 0.9 | 0.00 | 0.00 | 0.00 | 55 | 1012.5 |
| 20260510062014 | 68 | 211 | 2.6 | 2.6 | 0.00 | 0.00 | 0.00 | 55 | 1012.6 |
| 20260510061511 | 68 | 211 | 1.7 | 1.7 | 0.00 | 0.00 | 0.00 | 55 | 1012.4 |
| 20260510061007 | 68 | 203 | 2.6 | 2.6 | 0.00 | 0.00 | 0.00 | 55 | 1012.6 |
| 20260510060504 | 68 | 194 | 2.6 | 2.6 | 0.00 | 0.00 | 0.00 | 55 | 1012.6 |
| 20260510060000 | 68 | 201 | 2.6 | 2.6 | 0.00 | 0.00 | 0.00 | 55 | 1012.6 |
| 20260510055456 | 68 | 217 | 1.7 | 1.7 | 0.00 | 0.00 | 0.00 | 54 | 1012.7 |
| 20260510054954 | 68 | 212 | 3.5 | 5.2 | 0.00 | 0.00 | 0.00 | 54 | 1012.6 |
| 20260510054449 | 68 | 210 | 1.7 | 2.6 | 0.00 | 0.00 | 0.00 | 56 | 1012.6 |
| 20260510053945 | 67 | 236 | 0.0 | 0.9 | 0.00 | 0.00 | 0.00 | 57 | 1012.6 |
| 20260510053440 | 66 | 240 | 0.0 | 0.0 | 0.00 | 0.00 | 0.00 | 57 | 1012.5 |
| 20260510052937 | 66 | 239 | 0.0 | 0.0 | 0.00 | 0.00 | 0.00 | 57 | 1012.6 |
| 20260510052432 | 66 | 240 | 0.0 | 0.0 | 0.00 | 0.00 | 0.00 | 57 | 1012.5 |
| 20260510051929 | 66 | 240 | 0.0 | 0.0 | 0.00 | 0.00 | 0.00 | 55 | 1012.4 |
| 20260510051425 | 67 | 240 | 0.0 | 0.0 | 0.00 | 0.00 | 0.00 | 55 | 1012.5 |
| 20260510050922 | 67 | 240 | 0.0 | 0.0 | 0.00 | 0.00 | 0.00 | 54 | 1012.4 |
| 20260510050419 | 67 | 240 | 0.0 | 0.0 | 0.00 | 0.00 | 0.00 | 54 | 1012.4 |
| 20260510045916 | 68 | 240 | 0.0 | 0.0 | 0.00 | 0.00 | 0.00 | 53 | 1012.4 |
| 20260510045413 | 67 | 240 | 1.7 | 1.7 | 0.00 | 0.00 | 0.00 | 53 | 1012.4 |
| 20260510044910 | 67 | 247 | 0.0 | 0.9 | 0.00 | 0.00 | 0.00 | 53 | 1012.4 |
| 20260510044407 | 67 | 258 | 1.7 | 1.7 | 0.00 | 0.00 | 0.00 | 53 | 1012.1 |
| 20260510043903 | 68 | 225 | 1.7 | 1.7 | 0.00 | 0.00 | 0.00 | 53 | 1012.1 |
| 20260510043359 | 68 | 221 | 0.9 | 1.7 | 0.00 | 0.00 | 0.00 | 52 | 1012.3 |
| 20260510042857 | 68 | 222 | 0.9 | 1.7 | 0.00 | 0.00 | 0.00 | 53 | 1012.1 |
| 20260510042353 | 68 | 215 | 0.9 | 0.9 | 0.00 | 0.00 | 0.00 | 52 | 1012.2 |
| 20260510041849 | 68 | 213 | 1.7 | 1.7 | 0.00 | 0.00 | 0.00 | 51 | 1012.3 |
| 20260510041347 | 68 | 220 | 0.9 | 0.9 | 0.00 | 0.00 | 0.00 | 52 | 1012.2 |
| 20260510040844 | 68 | 219 | 0.9 | 0.9 | 0.00 | 0.00 | 0.00 | 51 | 1012.3 |
| 20260510040341 | 68 | 220 | 0.9 | 1.7 | 0.00 | 0.00 | 0.00 | 53 | 1012.3 |
| 20260510035836 | 68 | 214 | 0.9 | 1.7 | 0.00 | 0.00 | 0.00 | 51 | 1012.1 |
| 20260510035332 | 68 | 210 | 0.0 | 0.0 | 0.00 | 0.00 | 0.00 | 52 | 1011.9 |
| 20260510034828 | 68 | 206 | 0.0 | 0.0 | 0.00 | 0.00 | 0.00 | 52 | 1011.8 |
| 20260510034326 | 68 | 210 | 0.0 | 0.9 | 0.00 | 0.00 | 0.00 | 51 | 1011.7 |
| 20260510033822 | 68 | 236 | 0.0 | 0.0 | 0.00 | 0.00 | 0.00 | 50 | 1011.4 |
| 20260510033319 | 68 | 236 | 0.0 | 0.0 | 0.00 | 0.00 | 0.00 | 49 | 1011.6 |
| 20260510032816 | 68 | 236 | 0.0 | 0.0 | 0.00 | 0.00 | 0.00 | 51 | 1011.5 |
| 20260510032312 | 67 | 235 | 0.0 | 0.0 | 0.00 | 0.00 | 0.00 | 50 | 1011.5 |
| 20260510031808 | 67 | 235 | 0.0 | 0.0 | 0.00 | 0.00 | 0.00 | 53 | 1011.2 |
| 20260510031303 | 68 | 236 | 0.0 | 0.0 | 0.00 | 0.00 | 0.00 | 54 | 1011.2 |
| 20260510030757 | 69 | 236 | 0.0 | 0.0 | 0.00 | 0.00 | 0.00 | 53 | 1011.3 |
| 20260510030254 | 69 | 236 | 0.0 | 0.0 | 0.00 | 0.00 | 0.00 | 49 | 1011.4 |
| 20260510025752 | 69 | 235 | 0.0 | 0.0 | 0.00 | 0.00 | 0.00 | 50 | 1011.3 |
| 20260510025249 | 70 | 236 | 0.0 | 0.0 | 0.00 | 0.00 | 0.00 | 48 | 1011.1 |
| 20260510024746 | 70 | 236 | 0.0 | 0.0 | 0.00 | 0.00 | 0.00 | 47 | 1011.1 |
| 20260510024242 | 70 | 236 | 0.0 | 0.0 | 0.00 | 0.00 | 0.00 | 48 | 1011.0 |
| 20260510023738 | 70 | 235 | 0.0 | 0.0 | 0.00 | 0.00 | 0.00 | 48 | 1010.8 |
| 20260510023235 | 69 | 235 | 0.0 | 0.0 | 0.00 | 0.00 | 0.00 | 48 | 1010.7 |
| 20260510022732 | 69 | 235 | 0.0 | 0.0 | 0.00 | 0.00 | 0.00 | 50 | 1010.3 |
| 20260510022232 | 70 | 235 | 0.0 | 0.0 | 0.00 | 0.00 | 0.00 | 50 | 1010.4 |
| 20260510021726 | 70 | 235 | 0.0 | 0.0 | 0.00 | 0.00 | 0.00 | 50 | 1010.3 |
| 20260510021224 | 71 | 235 | 0.0 | 0.0 | 0.00 | 0.00 | 0.00 | 49 | 1010.2 |
| 20260510020725 | 71 | 235 | 0.0 | 0.0 | 0.00 | 0.00 | 0.00 | 49 | 1010.2 |
| 20260510020220 | 71 | 235 | 0.0 | 0.0 | 0.00 | 0.00 | 0.00 | 48 | 1009.9 |
| 20260510015716 | 71 | 235 | 0.0 | 0.0 | 0.00 | 0.00 | 0.00 | 48 | 1009.8 |
| 20260510015212 | 71 | 235 | 0.0 | 0.0 | 0.00 | 0.00 | 0.00 | 49 | 1009.8 |
| 20260510014708 | 71 | 235 | 0.0 | 0.0 | 0.00 | 0.00 | 0.00 | 49 | 1009.8 |
| 20260510014205 | 72 | 235 | 0.0 | 0.0 | 0.00 | 0.00 | 0.00 | 48 | 1009.7 |
| 20260510013700 | 73 | 235 | 0.0 | 0.0 | 0.00 | 0.00 | 0.00 | 47 | 1009.7 |
| 20260510013156 | 73 | 235 | 0.0 | 0.0 | 0.00 | 0.00 | 0.00 | 47 | 1009.7 |
| 20260510012656 | 73 | 235 | 0.0 | 0.0 | 0.00 | 0.00 | 0.00 | 46 | 1009.5 |
| 20260510012151 | 74 | 235 | 0.0 | 0.0 | 0.00 | 0.00 | 0.00 | 46 | 1009.4 |
| 20260510011647 | 75 | 235 | 0.0 | 0.0 | 0.00 | 0.00 | 0.00 | 45 | 1009.5 |
| 20260510011143 | 75 | 235 | 0.0 | 0.0 | 0.00 | 0.00 | 0.00 | 44 | 1009.3 |
| 20260510010638 | 74 | 235 | 0.9 | 0.9 | 0.00 | 0.00 | 0.00 | 46 | 1009.3 |
| 20260510010136 | 74 | 235 | 0.0 | 0.0 | 0.00 | 0.00 | 0.00 | 47 | 1009.2 |
| 20260510005631 | 75 | 235 | 0.0 | 0.0 | 0.00 | 0.00 | 0.00 | 46 | 1009.2 |
| 20260510005129 | 75 | 235 | 0.0 | 0.0 | 0.00 | 0.00 | 0.00 | 46 | 1009.2 |
| 20260510004627 | 75 | 235 | 0.0 | 0.0 | 0.00 | 0.00 | 0.00 | 46 | 1009.3 |
| 20260510004125 | 75 | 235 | 0.0 | 0.0 | 0.00 | 0.00 | 0.00 | 47 | 1009.3 |
| 20260510003622 | 76 | 235 | 0.9 | 0.9 | 0.00 | 0.00 | 0.00 | 46 | 1009.2 |
| 20260510003117 | 76 | 234 | 0.0 | 0.9 | 0.00 | 0.00 | 0.00 | 47 | 1009.0 |
| 20260510002612 | 76 | 234 | 0.0 | 0.0 | 0.00 | 0.00 | 0.00 | 48 | 1009.1 |
| 20260510002109 | 76 | 234 | 0.9 | 0.9 | 0.00 | 0.00 | 0.00 | 45 | 1009.2 |
| 20260510001606 | 76 | 228 | 0.9 | 1.7 | 0.00 | 0.00 | 0.00 | 44 | 1009.3 |
| 20260510001106 | 76 | 230 | 2.6 | 2.6 | 0.00 | 0.00 | 0.00 | 43 | 1009.1 |
| 20260510000605 | 77 | 251 | 2.6 | 2.6 | 0.00 | 0.00 | 0.00 | 43 | 1009.2 |
| 20260509235559 | 77 | 256 | 2.6 | 2.6 | 0.00 | 0.00 | 0.00 | 41 | 1009.2 |
| 20260509235056 | 77 | 252 | 2.6 | 2.6 | 0.00 | 0.00 | 0.00 | 40 | 1009.4 |
| 20260509234552 | 77 | 267 | 0.9 | 1.7 | 0.00 | 0.00 | 0.00 | 42 | 1009.2 |
| 20260509234050 | 77 | 276 | 1.7 | 1.7 | 0.00 | 0.00 | 0.00 | 41 | 1009.1 |
| 20260509233547 | 77 | 231 | 2.6 | 4.3 | 0.00 | 0.00 | 0.00 | 40 | 1009.2 |
| 20260509233044 | 77 | 219 | 0.9 | 0.9 | 0.00 | 0.00 | 0.00 | 41 | 1009.0 |
| 20260509232541 | 78 | 215 | 2.6 | 2.6 | 0.00 | 0.00 | 0.00 | 41 | 1009.0 |
| 20260509232038 | 78 | 218 | 1.7 | 1.7 | 0.00 | 0.00 | 0.00 | 41 | 1009.0 |
| 20260509231534 | 79 | 232 | 0.0 | 0.0 | 0.00 | 0.00 | 0.00 | 41 | 1009.2 |
| 20260509231032 | 78 | 211 | 0.9 | 0.9 | 0.00 | 0.00 | 0.00 | 40 | 1009.2 |
| 20260509230528 | 79 | 215 | 1.7 | 1.7 | 0.00 | 0.00 | 0.00 | 40 | 1009.2 |
| 20260509230025 | 79 | 220 | 0.0 | 0.9 | 0.00 | 0.00 | 0.00 | 40 | 1009.2 |
| 20260509225520 | 79 | 235 | 0.0 | 0.0 | 0.00 | 0.00 | 0.00 | 38 | 1009.3 |
| 20260509225016 | 78 | 219 | 2.6 | 2.6 | 0.00 | 0.00 | 0.00 | 38 | 1009.3 |
| 20260509224512 | 80 | 255 | 2.6 | 2.6 | 0.00 | 0.00 | 0.00 | 36 | 1009.4 |
| 20260509224009 | 79 | 217 | 1.7 | 1.7 | 0.00 | 0.00 | 0.00 | 39 | 1009.3 |
| 20260509223506 | 78 | 205 | 3.5 | 4.3 | 0.00 | 0.00 | 0.00 | 38 | 1009.1 |
| 20260509223004 | 78 | 214 | 1.7 | 1.7 | 0.00 | 0.00 | 0.00 | 39 | 1009.1 |
| 20260509222459 | 78 | 248 | 0.9 | 1.7 | 0.00 | 0.00 | 0.00 | 39 | 1009.2 |
| 20260509221955 | 79 | 209 | 0.0 | 0.0 | 0.00 | 0.00 | 0.00 | 43 | 1008.9 |
| 20260509221451 | 79 | 212 | 0.0 | 0.0 | 0.00 | 0.00 | 0.00 | 44 | 1009.0 |
| 20260509220948 | 77 | 212 | 0.0 | 0.0 | 0.00 | 0.00 | 0.00 | 41 | 1009.2 |
| 20260509220443 | 78 | 210 | 0.0 | 0.9 | 0.00 | 0.00 | 0.00 | 44 | 1009.1 |
| 20260509215940 | 78 | 209 | 0.0 | 0.0 | 0.00 | 0.00 | 0.00 | 44 | 1009.1 |
| 20260509215435 | 78 | 209 | 0.0 | 0.9 | 0.00 | 0.00 | 0.00 | 44 | 1009.2 |
| 20260509214933 | 77 | 209 | 0.0 | 0.0 | 0.00 | 0.00 | 0.00 | 44 | 1009.2 |
| 20260509214430 | 77 | 209 | 0.9 | 0.9 | 0.00 | 0.00 | 0.00 | 43 | 1009.2 |
| 20260509213926 | 77 | 195 | 0.0 | 0.0 | 0.00 | 0.00 | 0.00 | 42 | 1009.2 |
| 20260509213422 | 78 | 224 | 1.7 | 2.6 | 0.00 | 0.00 | 0.00 | 39 | 1009.2 |
| 20260509212920 | 80 | 193 | 0.9 | 1.7 | 0.00 | 0.00 | 0.00 | 39 | 1009.3 |
| 20260509212418 | 81 | 261 | 0.9 | 1.7 | 0.00 | 0.00 | 0.00 | 36 | 1009.4 |
| 20260509211913 | 82 | 222 | 0.9 | 0.9 | 0.00 | 0.00 | 0.00 | 38 | 1009.5 |
| 20260509211409 | 85 | 231 | 2.6 | 2.6 | 0.00 | 0.00 | 0.00 | 32 | 1009.5 |
| 20260509210906 | 84 | 265 | 0.0 | 0.9 | 0.00 | 0.00 | 0.00 | 34 | 1009.4 |
| 20260509210403 | 83 | 261 | 0.0 | 0.0 | 0.00 | 0.00 | 0.00 | 35 | 1009.6 |
| 20260509205858 | 84 | 265 | 2.6 | 4.3 | 0.00 | 0.00 | 0.00 | 33 | 1009.6 |
| 20260509205352 | 83 | 298 | 0.0 | 0.0 | 0.00 | 0.00 | 0.00 | 38 | 1009.6 |
| 20260509204849 | 84 | 298 | 0.9 | 1.7 | 0.00 | 0.00 | 0.00 | 37 | 1009.7 |
| 20260509204345 | 84 | 328 | 0.0 | 0.9 | 0.00 | 0.00 | 0.00 | 37 | 1009.6 |
| 20260509203841 | 83 | 251 | 0.0 | 0.9 | 0.00 | 0.00 | 0.00 | 33 | 1009.7 |
| 20260509203333 | 84 | 266 | 0.0 | 0.0 | 0.00 | 0.00 | 0.00 | 34 | 1009.4 |
| 20260509202830 | 82 | 247 | 0.0 | 0.0 | 0.00 | 0.00 | 0.00 | 37 | 1009.8 |
| 20260509202326 | 82 | 263 | 0.0 | 0.9 | 0.00 | 0.00 | 0.00 | 36 | 1009.8 |
| 20260509201825 | 82 | 305 | 0.0 | 0.0 | 0.00 | 0.00 | 0.00 | 38 | 1009.8 |
| 20260509201322 | 83 | 230 | 0.9 | 0.9 | 0.00 | 0.00 | 0.00 | 35 | 1009.7 |
| 20260509200819 | 84 | 274 | 0.0 | 0.0 | 0.00 | 0.00 | 0.00 | 37 | 1009.8 |
| 20260509200314 | 84 | 244 | 0.9 | 0.9 | 0.00 | 0.00 | 0.00 | 37 | 1009.7 |
| 20260509195811 | 84 | 267 | 0.9 | 1.7 | 0.00 | 0.00 | 0.00 | 35 | 1009.8 |
| 20260509195307 | 82 | 267 | 0.0 | 0.9 | 0.00 | 0.00 | 0.00 | 35 | 1009.9 |
| 20260509194805 | 82 | 251 | 0.9 | 0.9 | 0.00 | 0.00 | 0.00 | 37 | 1010.0 |
| 20260509194301 | 83 | 220 | 2.6 | 2.6 | 0.00 | 0.00 | 0.00 | 34 | 1010.2 |
| 20260509193758 | 81 | 240 | 2.6 | 2.6 | 0.00 | 0.00 | 0.00 | 37 | 1010.1 |
| 20260509193252 | 81 | 221 | 0.9 | 0.9 | 0.00 | 0.00 | 0.00 | 39 | 1010.3 |
| 20260509192749 | 81 | 238 | 0.0 | 0.0 | 0.00 | 0.00 | 0.00 | 36 | 1010.2 |
| 20260509192244 | 80 | 266 | 1.7 | 2.6 | 0.00 | 0.00 | 0.00 | 37 | 1010.2 |
| 20260509191740 | 81 | 235 | 1.7 | 1.7 | 0.00 | 0.00 | 0.00 | 37 | 1010.1 |
| 20260509191236 | 82 | 314 | 1.7 | 1.7 | 0.00 | 0.00 | 0.00 | 37 | 1010.2 |
| 20260509190732 | 82 | 345 | 0.0 | 0.0 | 0.00 | 0.00 | 0.00 | 36 | 1010.3 |
| 20260509190229 | 82 | 336 | 0.0 | 0.9 | 0.00 | 0.00 | 0.00 | 40 | 1010.2 |
| 20260509185727 | 82 | 336 | 0.9 | 0.9 | 0.00 | 0.00 | 0.00 | 39 | 1010.3 |
| 20260509185223 | 80 | 216 | 0.0 | 0.0 | 0.00 | 0.00 | 0.00 | 40 | 1010.4 |
| 20260509184721 | 81 | 241 | 0.0 | 0.9 | 0.00 | 0.00 | 0.00 | 38 | 1010.2 |
| 20260509184218 | 82 | 232 | 0.0 | 0.9 | 0.00 | 0.00 | 0.00 | 37 | 1010.4 |
| 20260509183714 | 81 | 272 | 0.9 | 0.9 | 0.00 | 0.00 | 0.00 | 39 | 1010.3 |
| 20260509183209 | 82 | 304 | 0.0 | 0.0 | 0.00 | 0.00 | 0.00 | 36 | 1010.7 |
| 20260509182705 | 81 | 250 | 0.9 | 1.7 | 0.00 | 0.00 | 0.00 | 38 | 1010.4 |
| 20260509182203 | 80 | 277 | 0.0 | 0.0 | 0.00 | 0.00 | 0.00 | 37 | 1010.6 |
| 20260509181700 | 80 | 311 | 0.0 | 0.0 | 0.00 | 0.00 | 0.00 | 34 | 1010.4 |
| 20260509181158 | 80 | 311 | 0.9 | 0.9 | 0.00 | 0.00 | 0.00 | 33 | 1010.6 |
| 20260509180654 | 80 | 311 | 0.9 | 0.9 | 0.00 | 0.00 | 0.00 | 38 | 1010.6 |
| 20260509180150 | 80 | 311 | 0.9 | 0.9 | 0.00 | 0.00 | 0.00 | 38 | 1010.4 |
| 20260509175647 | 79 | 324 | 0.9 | 0.9 | 0.00 | 0.00 | 0.00 | 40 | 1010.7 |
| 20260509175144 | 79 | 280 | 0.9 | 1.7 | 0.00 | 0.00 | 0.00 | 44 | 1010.4 |
| 20260509174639 | 79 | 237 | 4.3 | 6.1 | 0.00 | 0.00 | 0.00 | 41 | 1010.7 |
| 20260509174134 | 79 | 278 | 0.9 | 0.9 | 0.00 | 0.00 | 0.00 | 43 | 1010.7 |
| 20260509173630 | 78 | 225 | 0.0 | 0.0 | 0.00 | 0.00 | 0.00 | 47 | 1010.7 |
| 20260509173126 | 77 | 236 | 2.6 | 4.3 | 0.00 | 0.00 | 0.00 | 46 | 1010.7 |
| 20260509172623 | 77 | 174 | 3.5 | 4.3 | 0.00 | 0.00 | 0.00 | 47 | 1010.7 |
| 20260509172119 | 78 | 223 | 0.9 | 1.7 | 0.00 | 0.00 | 0.00 | 46 | 1010.8 |
| 20260509171615 | 77 | 223 | 2.6 | 2.6 | 0.00 | 0.00 | 0.00 | 51 | 1010.9 |
| 20260509171112 | 76 | 237 | 0.0 | 0.0 | 0.00 | 0.00 | 0.00 | 52 | 1010.9 |
| 20260509170608 | 76 | 201 | 2.6 | 2.6 | 0.00 | 0.00 | 0.00 | 54 | 1010.9 |
| 20260509170104 | 76 | 236 | 1.7 | 2.6 | 0.00 | 0.00 | 0.00 | 55 | 1010.8 |
| 20260509165603 | 75 | 221 | 0.9 | 0.9 | 0.00 | 0.00 | 0.00 | 58 | 1010.9 |
| 20260509165058 | 75 | 235 | 2.6 | 4.3 | 0.00 | 0.00 | 0.00 | 56 | 1011.0 |
| 20260509164554 | 75 | 236 | 1.7 | 1.7 | 0.00 | 0.00 | 0.00 | 60 | 1010.8 |
| 20260509164049 | 75 | 228 | 4.3 | 5.2 | 0.00 | 0.00 | 0.00 | 61 | 1010.8 |
| 20260509163548 | 74 | 199 | 1.7 | 2.6 | 0.00 | 0.00 | 0.00 | 62 | 1011.1 |
| 20260509163043 | 74 | 201 | 0.9 | 1.7 | 0.00 | 0.00 | 0.00 | 62 | 1011.1 |
| 20260509162540 | 73 | 223 | 2.6 | 2.6 | 0.00 | 0.00 | 0.00 | 65 | 1011.0 |
| 20260509162036 | 73 | 209 | 1.7 | 1.7 | 0.00 | 0.00 | 0.00 | 63 | 1010.9 |
| 20260509161533 | 73 | 230 | 3.5 | 5.2 | 0.00 | 0.00 | 0.00 | 64 | 1010.9 |
| 20260509161028 | 73 | 248 | 1.7 | 1.7 | 0.00 | 0.00 | 0.00 | 64 | 1011.0 |
| 20260509160524 | 73 | 241 | 4.3 | 4.3 | 0.00 | 0.00 | 0.00 | 64 | 1011.2 |
| 20260509160020 | 71 | 206 | 0.9 | 1.7 | 0.00 | 0.00 | 0.00 | 67 | 1010.9 |
| 20260509155516 | 72 | 233 | 3.5 | 4.3 | 0.00 | 0.00 | 0.00 | 67 | 1011.2 |
| 20260509155012 | 72 | 213 | 2.6 | 2.6 | 0.00 | 0.00 | 0.00 | 67 | 1010.9 |
| 20260509154509 | 71 | 225 | 2.6 | 2.6 | 0.00 | 0.00 | 0.00 | 68 | 1011.0 |
| 20260509154007 | 71 | 250 | 1.7 | 1.7 | 0.00 | 0.00 | 0.00 | 69 | 1010.9 |
| 20260509153503 | 70 | 233 | 2.6 | 2.6 | 0.00 | 0.00 | 0.00 | 71 | 1010.9 |
| 20260509153000 | 70 | 195 | 2.6 | 2.6 | 0.00 | 0.00 | 0.00 | 73 | 1010.9 |
| 20260509152455 | 70 | 284 | 0.0 | 0.0 | 0.00 | 0.00 | 0.00 | 71 | 1010.7 |
| 20260509151947 | 69 | 202 | 0.9 | 1.7 | 0.00 | 0.00 | 0.00 | 73 | 1010.6 |
| 20260509151443 | 69 | 189 | 0.0 | 0.0 | 0.00 | 0.00 | 0.00 | 74 | 1010.7 |
| 20260509150941 | 69 | 254 | 0.9 | 1.7 | 0.00 | 0.00 | 0.00 | 72 | 1010.8 |
| 20260509150438 | 68 | 256 | 0.0 | 0.9 | 0.00 | 0.00 | 0.00 | 77 | 1010.7 |
| 20260509145937 | 67 | 238 | 2.6 | 2.6 | 0.00 | 0.00 | 0.00 | 77 | 1010.9 |
| 20260509145436 | 68 | 238 | 4.3 | 5.2 | 0.00 | 0.00 | 0.00 | 77 | 1010.7 |
| 20260509144932 | 67 | 212 | 0.9 | 1.7 | 0.00 | 0.00 | 0.00 | 78 | 1010.7 |
| 20260509144429 | 67 | 193 | 2.6 | 4.3 | 0.00 | 0.00 | 0.00 | 78 | 1010.6 |
| 20260509143926 | 67 | 248 | 0.9 | 1.7 | 0.00 | 0.00 | 0.00 | 78 | 1010.8 |
| 20260509143424 | 66 | 240 | 0.9 | 0.9 | 0.00 | 0.00 | 0.00 | 80 | 1010.7 |
| 20260509142920 | 66 | 231 | 0.0 | 0.0 | 0.00 | 0.00 | 0.00 | 81 | 1010.7 |
| 20260509142416 | 65 | 231 | 2.6 | 2.6 | 0.00 | 0.00 | 0.00 | 82 | 1010.8 |
| 20260509141912 | 65 | 229 | 1.7 | 2.6 | 0.00 | 0.00 | 0.00 | 81 | 1010.8 |
| 20260509141409 | 64 | 222 | 1.7 | 1.7 | 0.00 | 0.00 | 0.00 | 83 | 1010.7 |
| 20260509140906 | 64 | 242 | 0.9 | 1.7 | 0.00 | 0.00 | 0.00 | 82 | 1010.7 |
| 20260509140402 | 63 | 225 | 2.6 | 2.6 | 0.00 | 0.00 | 0.00 | 83 | 1010.6 |
| 20260509135901 | 63 | 239 | 0.0 | 0.9 | 0.00 | 0.00 | 0.00 | 83 | 1010.3 |
| 20260509135358 | 63 | 256 | 1.7 | 1.7 | 0.00 | 0.00 | 0.00 | 83 | 1010.4 |
| 20260509134855 | 63 | 239 | 1.7 | 1.7 | 0.00 | 0.00 | 0.00 | 82 | 1010.4 |
| 20260509134352 | 62 | 235 | 0.0 | 0.0 | 0.00 | 0.00 | 0.00 | 85 | 1010.4 |
| 20260509133849 | 62 | 235 | 0.9 | 1.7 | 0.00 | 0.00 | 0.00 | 86 | 1010.2 |
| 20260509133346 | 61 | 235 | 0.9 | 1.7 | 0.00 | 0.00 | 0.00 | 87 | 1010.3 |
| 20260509132845 | 60 | 236 | 0.9 | 1.7 | 0.00 | 0.00 | 0.00 | 88 | 1010.1 |
| 20260509132342 | 59 | 229 | 1.7 | 1.7 | 0.00 | 0.00 | 0.00 | 89 | 1010.3 |
| 20260509131839 | 59 | 237 | 2.6 | 2.6 | 0.00 | 0.00 | 0.00 | 91 | 1010.1 |
| 20260509131336 | 58 | 236 | 2.6 | 2.6 | 0.00 | 0.00 | 0.00 | 91 | 1010.1 |
| 20260509130832 | 58 | 236 | 1.7 | 1.7 | 0.00 | 0.00 | 0.00 | 92 | 1010.0 |
| 20260509130328 | 57 | 236 | 0.9 | 1.7 | 0.00 | 0.00 | 0.00 | 92 | 1010.1 |
| 20260509125825 | 57 | 236 | 0.9 | 0.9 | 0.00 | 0.00 | 0.00 | 92 | 1009.9 |
| 20260509125321 | 57 | 236 | 0.0 | 0.9 | 0.00 | 0.00 | 0.00 | 93 | 1010.1 |
| 20260509124818 | 56 | 236 | 0.9 | 0.9 | 0.00 | 0.00 | 0.00 | 94 | 1010.1 |
| 20260509124314 | 56 | 234 | 0.9 | 0.9 | 0.00 | 0.00 | 0.00 | 94 | 1010.0 |
| 20260509123813 | 56 | 234 | 1.7 | 1.7 | 0.00 | 0.00 | 0.00 | 94 | 1010.1 |
| 20260509123310 | 55 | 216 | 1.7 | 1.7 | 0.00 | 0.00 | 0.00 | 94 | 1010.0 |
| 20260509122805 | 55 | 238 | 0.9 | 0.9 | 0.00 | 0.00 | 0.00 | 95 | 1009.9 |
| 20260509122305 | 55 | 238 | 0.9 | 0.9 | 0.00 | 0.00 | 0.00 | 95 | 1009.9 |
| 20260509121759 | 55 | 238 | 0.9 | 0.9 | 0.00 | 0.00 | 0.00 | 95 | 1009.7 |
| 20260509121256 | 55 | 238 | 0.0 | 0.9 | 0.00 | 0.00 | 0.00 | 95 | 1009.7 |
| 20260509120755 | 55 | 237 | 1.7 | 2.6 | 0.00 | 0.00 | 0.00 | 95 | 1009.7 |
| 20260509120252 | 55 | 238 | 2.6 | 2.6 | 0.00 | 0.00 | 0.00 | 95 | 1009.6 |
| 20260509115750 | 54 | 235 | 3.5 | 4.3 | 0.00 | 0.00 | 0.00 | 95 | 1009.6 |
| 20260509115247 | 54 | 243 | 4.3 | 5.2 | 0.00 | 0.00 | 0.00 | 95 | 1009.6 |
| 20260509114745 | 54 | 224 | 3.5 | 4.3 | 0.00 | 0.00 | 0.00 | 95 | 1009.6 |
| 20260509114244 | 54 | 238 | 2.6 | 4.3 | 0.00 | 0.00 | 0.00 | 95 | 1009.6 |
| 20260509113742 | 54 | 229 | 2.6 | 2.6 | 0.00 | 0.00 | 0.00 | 95 | 1009.5 |
| 20260509113238 | 54 | 239 | 1.7 | 1.7 | 0.00 | 0.00 | 0.00 | 95 | 1009.5 |
| 20260509112736 | 54 | 239 | 2.6 | 2.6 | 0.00 | 0.00 | 0.00 | 95 | 1009.3 |
| 20260509112233 | 54 | 226 | 2.6 | 2.6 | 0.00 | 0.00 | 0.00 | 95 | 1009.3 |
| 20260509111730 | 54 | 250 | 0.9 | 0.9 | 0.00 | 0.00 | 0.00 | 95 | 1009.3 |
| 20260509111226 | 55 | 250 | 0.0 | 0.0 | 0.00 | 0.00 | 0.00 | 94 | 1009.1 |
| 20260509110724 | 55 | 250 | 0.0 | 0.0 | 0.00 | 0.00 | 0.00 | 94 | 1009.1 |
| 20260509110221 | 55 | 250 | 0.9 | 0.9 | 0.00 | 0.00 | 0.00 | 94 | 1009.0 |
| 20260509105719 | 55 | 250 | 0.9 | 0.9 | 0.00 | 0.00 | 0.00 | 93 | 1009.0 |
| 20260509105216 | 55 | 250 | 0.9 | 1.7 | 0.00 | 0.00 | 0.00 | 93 | 1009.1 |
| 20260509104713 | 55 | 250 | 2.6 | 2.6 | 0.00 | 0.00 | 0.00 | 93 | 1008.9 |
| 20260509104210 | 56 | 250 | 0.9 | 0.9 | 0.00 | 0.00 | 0.00 | 92 | 1008.9 |
| 20260509103708 | 56 | 250 | 0.9 | 0.9 | 0.00 | 0.00 | 0.00 | 92 | 1008.7 |
| 20260509103205 | 56 | 250 | 0.9 | 1.7 | 0.00 | 0.00 | 0.00 | 92 | 1008.7 |
| 20260509102703 | 56 | 249 | 0.9 | 1.7 | 0.00 | 0.00 | 0.00 | 92 | 1008.8 |
| 20260509102200 | 56 | 249 | 0.9 | 0.9 | 0.00 | 0.00 | 0.00 | 92 | 1008.8 |
| 20260509101656 | 56 | 249 | 0.0 | 0.0 | 0.00 | 0.00 | 0.00 | 91 | 1008.8 |
| 20260509101153 | 56 | 249 | 0.0 | 0.0 | 0.00 | 0.00 | 0.00 | 91 | 1009.0 |
| 20260509100650 | 56 | 249 | 0.9 | 1.7 | 0.00 | 0.00 | 0.00 | 91 | 1009.1 |
| 20260509100147 | 57 | 249 | 0.0 | 0.0 | 0.00 | 0.00 | 0.00 | 91 | 1009.0 |
| 20260509095643 | 57 | 249 | 0.0 | 0.0 | 0.00 | 0.00 | 0.00 | 90 | 1009.1 |